FDX1776 CYUL-KBOS

Flight info

Callsign FDX1776
Flight time N/A
Altitude 19000
Route VIRKA CON TOMIE LWRNC
Aircraft AT76/M-SDE2E3FGHIRWXY/LB1

Departure

Time 2026-04-30 21:34
Airport Montreal / Pierre Elliott Trudeau International Airport (CYUL)

Arrival

Time N/A
Airport Boston Logan International Airport (KBOS)
Time Latitude Longitude Altitude Speed Heading
2026-04-30 21:33 45.29014 -73.61571 7749 ft 188 kts 131°
2026-04-30 21:34 45.28146 -73.60174 8160 ft 190 kts 131°
2026-04-30 21:34 45.26389 -73.57346 8980 ft 192 kts 131°
2026-04-30 21:34 45.25502 -73.55919 9381 ft 194 kts 131°
2026-04-30 21:35 45.24588 -73.54460 9650 ft 202 kts 139°
2026-04-30 21:35 45.23693 -73.53004 10224 ft 191 kts 136°
2026-04-30 21:35 45.22799 -73.51563 10526 ft 199 kts 128°
2026-04-30 21:35 45.21857 -73.50016 10702 ft 213 kts 128°
2026-04-30 21:36 45.20889 -73.48423 10978 ft 219 kts 129°
2026-04-30 21:36 45.19869 -73.46753 11325 ft 221 kts 130°
2026-04-30 21:37 45.16813 -73.41820 12426 ft 222 kts 136°
2026-04-30 21:37 45.15792 -73.40190 12849 ft 219 kts 138°
2026-04-30 21:37 45.14783 -73.38579 13308 ft 214 kts 139°
2026-04-30 21:37 45.13805 -73.37012 13717 ft 211 kts 140°
2026-04-30 21:38 45.12847 -73.35471 14131 ft 207 kts 140°
2026-04-30 21:38 45.11910 -73.33948 14569 ft 202 kts 140°
2026-04-30 21:38 45.11017 -73.32481 15026 ft 195 kts 139°
2026-04-30 21:38 45.10126 -73.31016 15399 ft 194 kts 139°
2026-04-30 21:39 45.09248 -73.29575 15688 ft 196 kts 139°
2026-04-30 21:39 45.08356 -73.28110 15997 ft 197 kts 139°
2026-04-30 21:39 45.07459 -73.26635 16322 ft 197 kts 139°
2026-04-30 21:39 45.06568 -73.25166 16633 ft 197 kts 139°
2026-04-30 21:40 45.05677 -73.23698 16960 ft 195 kts 140°
2026-04-30 21:40 45.04810 -73.22282 17313 ft 191 kts 140°
2026-04-30 21:40 45.03930 -73.20848 17637 ft 190 kts 140°
2026-04-30 21:40 45.03074 -73.19460 17908 ft 190 kts 140°
2026-04-30 21:41 45.02214 -73.18112 18145 ft 191 kts 142°
2026-04-30 21:41 45.01150 -73.16887 18226 ft 205 kts 144°
2026-04-30 21:41 44.99928 -73.15724 18303 ft 217 kts 147°
2026-04-30 21:41 44.98622 -73.14556 18457 ft 223 kts 148°
2026-04-30 21:42 44.97298 -73.13393 18690 ft 225 kts 148°
2026-04-30 21:42 44.95975 -73.12221 18854 ft 228 kts 147°
2026-04-30 21:42 44.95511 -73.11802 18866 ft 232 kts 147°